Massena, NY

4:24 PM EST on December 08, 2019 (GMT -0500)
Massena International-Richards

Weather History for KMSS - October, 2019

Change the Weather History Date:

Saturday, October 26, 2019

  Actual Average Record
Temperature  
Mean Temperature 44 °F 43 °F  
Max Temperature 56 °F 52 °F 74 °F (2012)
Min Temperature 32 °F 33 °F 17 °F (1956)
Degree Days  
Heating Degree Days 21 22  
Month to date heating degree days 428 466  
Since 1 July heating degree days 643 766  
Cooling Degree Days 0 0  
Month to date cooling degree days 0 0  
Year to date cooling degree days 398 361  
Moisture  
Dew Point 34 °F    
Average Humidity 66    
Maximum Humidity 93    
Minimum Humidity 38    
Precipitation  
Precipitation T in 0.11 in 1.26 in (2003)
Month to date precipitation 4.02 2.79  
Year to date precipitation 27.73 28.98  
Sea Level Pressure  
Sea Level Pressure 30.25 in    
Wind  
Wind Speed 3 mph (East)    
Max Wind Speed 10 mph    
Max Gust Speed 12 mph    
Visibility 10 miles    
Events      
T = Trace of Precipitation, MM = Missing Value Source: NWS Daily Summary

Daily Weather History Graph

Daily Weather History Graph

Search for Another Location

Airport or City:

Astronomy

Oct. 26, 2019 Rise Set
Actual Time 7:29 AM EDT 5:56 PM EDT
Civil Twilight 6:59 AM EDT 6:26 PM EDT
Nautical Twilight 6:24 AM EDT 7:01 PM EDT
Astronomical Twilight 5:50 AM EDT 7:35 PM EDT
Moon 5:13 AM EDT (10/26) 5:37 PM EDT (10/26)
Length of Visible Light 11h 27m
Length of Day
10h 27m
Waning Crescent, 3% of the Moon is Illuminated
Oct 26
Waning Crescent
Oct 27
New
Nov 4
First Quarter
Nov 12
Full
Nov 19
Last Quarter

Hourly Weather History & Observations

Time (EDT) Temp. Windchill Dew Point Humidity Pressure Visibility Wind Dir Wind Speed Gust Speed Precip Events Conditions
12:53 AM 34.0 °F - 30.9 °F 89% 30.21 in 10.0 mi Calm Calm - N/A   Overcast
1:53 AM 33.1 °F - 30.9 °F 92% 30.21 in 10.0 mi Calm Calm - N/A   Scattered Clouds
2:53 AM 34.0 °F - 30.9 °F 89% 30.22 in 10.0 mi Calm Calm - N/A   Mostly Cloudy
3:53 AM 37.0 °F 34.5 °F 35.1 °F 93% 30.22 in 10.0 mi SW 3.5 mph - N/A   Mostly Cloudy
4:53 AM 39.0 °F - 36.0 °F 89% 30.23 in 10.0 mi Calm Calm - N/A   Mostly Cloudy
5:53 AM 39.9 °F 35.8 °F 37.0 °F 89% 30.26 in 10.0 mi WSW 5.8 mph - N/A   Overcast
6:53 AM 39.9 °F 35.8 °F 37.0 °F 89% 30.28 in 10.0 mi WSW 5.8 mph - 0.00 in   Overcast
7:53 AM 36.0 °F - 34.0 °F 93% 30.29 in 10.0 mi Calm Calm - N/A   Mostly Cloudy
8:53 AM 39.0 °F 35.7 °F 37.0 °F 93% 30.31 in 10.0 mi SSW 4.6 mph - N/A   Partly Cloudy
9:53 AM 45.0 °F - 39.9 °F 82% 30.31 in 10.0 mi Calm Calm - N/A   Clear
10:53 AM 48.0 °F - 37.0 °F 66% 30.31 in 10.0 mi Calm Calm - N/A   Clear
11:53 AM 51.1 °F - 37.9 °F 61% 30.31 in 10.0 mi Calm Calm - N/A   Clear
12:53 PM 53.1 °F - 35.1 °F 50% 30.29 in 10.0 mi Calm Calm - N/A   Clear
1:53 PM 53.1 °F - 32.0 °F 45% 30.27 in 10.0 mi Calm Calm - N/A   Clear
2:53 PM 54.0 °F - 32.0 °F 43% 30.27 in 10.0 mi Calm Calm - N/A   Clear
3:53 PM 55.0 °F - 30.0 °F 38% 30.27 in 10.0 mi Calm Calm - N/A   Clear
4:53 PM 55.0 °F - 32.0 °F 42% 30.25 in 10.0 mi Calm Calm - N/A   Clear
5:53 PM 48.9 °F - 33.1 °F 54% 30.24 in 10.0 mi NE 4.6 mph - N/A   Clear
6:53 PM 48.0 °F - 33.1 °F 56% 30.24 in 10.0 mi East 9.2 mph - N/A   Clear
7:53 PM 43.0 °F 38.2 °F 32.0 °F 65% 30.24 in 10.0 mi ENE 8.1 mph - N/A   Clear
8:53 PM 41.0 °F 39.0 °F 32.0 °F 70% 30.24 in 10.0 mi ENE 3.5 mph - N/A   Clear
9:53 PM 41.0 °F 37.1 °F 32.0 °F 70% 30.23 in 10.0 mi East 5.8 mph - N/A   Clear
10:53 PM 41.0 °F 37.1 °F 33.1 °F 73% 30.22 in 10.0 mi ENE 5.8 mph - N/A   Clear
11:53 PM 41.0 °F 36.4 °F 33.1 °F 73% 30.19 in 10.0 mi ENE 6.9 mph - N/A   Clear